SR6WXP Weather Reports


Display with metric or nautical units.
time (UTC)temp
F
wind
direction
speed
MPH
gust
MPH
rain 1hr
in
rain 24hr
in
rain mn
in
humidity
%
barometer
mb
20260507093559 66 222 7.0 10.0 0.00 0.00 0.00 71 987.5
20260507093158 66 213 7.0 9.0 0.00 0.00 0.00 71 987.5
20260507092758 66 218 6.0 10.0 0.00 0.00 0.00 70 987.5
20260507092356 66 208 6.0 9.0 0.00 0.00 0.00 71 987.5
20260507091956 66 236 3.0 8.0 0.00 0.00 0.00 72 987.4
20260507091556 65 214 6.0 8.0 0.00 0.00 0.00 71 987.4
20260507091156 65 225 5.0 10.0 0.00 0.00 0.00 72 987.3
20260507090756 65 249 3.0 5.0 0.00 0.00 0.00 73 987.3
20260507090354 65 268 5.0 8.0 0.00 0.00 0.00 73 987.3
20260507085954 65 255 6.0 8.0 0.00 0.00 0.00 73 987.2
20260507085554 65 250 8.0 11.0 0.00 0.00 0.00 71 987.2
20260507085154 65 248 6.0 9.0 0.00 0.00 0.00 71 987.2
20260507084754 65 242 7.0 11.0 0.00 0.00 0.00 71 987.1
20260507084352 65 226 5.0 8.0 0.00 0.00 0.00 71 987.1
20260507083950 65 201 3.0 5.0 0.00 0.00 0.00 72 987.1
20260507083550 65 233 7.0 13.0 0.00 0.00 0.00 71 987.1
20260507082750 65 228 4.0 7.0 0.00 0.00 0.00 72 987.0
20260507082348 65 237 4.0 6.0 0.00 0.00 0.00 73 986.9
20260507081948 65 251 5.0 8.0 0.00 0.00 0.00 73 986.9
20260507081548 65 263 4.0 7.0 0.00 0.00 0.00 73 986.8
20260507081148 65 254 4.0 7.0 0.00 0.00 0.00 73 986.8
20260507080748 65 251 4.0 6.0 0.00 0.00 0.00 73 986.7
20260507080346 64 238 3.0 6.0 0.00 0.00 0.00 74 986.7
20260507075947 64 167 4.0 6.0 0.00 0.00 0.00 75 986.7
20260507075547 64 234 4.0 7.0 0.00 0.00 0.00 75 986.7
20260507075147 64 231 2.0 5.0 0.00 0.00 0.00 75 986.6
20260507074345 64 210 4.0 8.0 0.00 0.00 0.00 76 986.5
20260507073945 63 282 3.0 6.0 0.00 0.00 0.00 78 986.5
20260507073545 63 213 1.0 3.0 0.00 0.00 0.00 78 986.5
20260507073142 63 225 4.0 6.0 0.00 0.00 0.00 78 986.4
20260507072743 63 250 2.0 4.0 0.00 0.00 0.00 79 986.4
20260507072341 63 269 2.0 3.0 0.00 0.00 0.00 79 986.4
20260507071941 63 301 1.0 2.0 0.00 0.00 0.00 80 986.4
20260507071541 63 242 2.0 3.0 0.00 0.00 0.00 81 986.4
20260507071133 63 243 2.0 4.0 0.00 0.00 0.00 81 986.4
20260507070732 63 258 1.0 4.0 0.00 0.00 0.00 81 986.3
20260507070330 63 253 3.0 6.0 0.00 0.00 0.00 81 986.3
20260507065929 63 206 1.0 6.0 0.00 0.00 0.00 82 986.3
20260507065529 63 264 1.0 2.0 0.00 0.00 0.00 83 986.2
20260507065128 63 284 1.0 3.0 0.00 0.00 0.00 84 986.3
20260507064728 63 30 1.0 2.0 0.00 0.00 0.00 85 986.2
20260507064326 62 47 2.0 2.0 0.00 0.00 0.00 85 986.2
20260507063926 62 47 2.0 3.0 0.00 0.00 0.00 86 986.2
20260507063526 62 236 1.0 1.0 0.00 0.00 0.00 86 986.2
20260507063126 61 332 2.0 4.0 0.00 0.00 0.00 87 986.2
20260507062726 61 41 2.0 3.0 0.00 0.00 0.00 89 986.2
20260507062324 61 296 1.0 2.0 0.00 0.00 0.00 89 986.2
20260507061921 61 273 1.0 2.0 0.00 0.00 0.00 90 986.2
20260507061521 61 219 1.0 1.0 0.00 0.00 0.00 91 986.1
20260507061121 60 196 2.0 3.0 0.00 0.00 0.00 92 986.0
20260507060721 60 196 3.0 5.0 0.00 0.00 0.00 93 986.1
20260507060319 60 219 2.0 4.0 0.00 0.00 0.00 94 986.1
20260507055919 60 207 3.0 5.0 0.00 0.00 0.00 94 986.0
20260507055518 60 231 3.0 5.0 0.00 0.00 0.00 96 986.0
20260507055118 60 210 2.0 4.0 0.00 0.00 0.00 97 986.0
20260507054718 60 217 1.0 3.0 0.00 0.00 0.00 97 986.0
20260507054316 60 226 2.0 3.0 0.00 0.00 0.00 97 985.9
20260507053916 59 223 4.0 6.0 0.00 0.00 0.00 97 985.9
20260507053516 59 219 4.0 5.0 0.00 0.00 0.00 97 985.8
20260507053116 59 240 4.0 5.0 0.00 0.00 0.00 97 985.6
20260507052716 59 230 2.0 4.0 0.00 0.00 0.00 97 985.6
20260507052314 59 221 4.0 5.0 0.00 0.00 0.00 97 985.6
20260507051915 59 218 3.0 4.0 0.00 0.00 0.00 98 985.5
20260507051514 59 253 2.0 4.0 0.00 0.00 0.00 98 985.5
20260507051112 59 240 4.0 8.0 0.00 0.00 0.00 98 985.5
20260507050712 59 233 5.0 7.0 0.00 0.00 0.00 98 985.4
20260507050310 59 249 5.0 6.0 0.00 0.00 0.00 98 985.3
20260507045910 59 252 3.0 4.0 0.00 0.00 0.00 98 985.2
20260507045510 59 268 0.0 0.0 0.00 0.00 0.00 99 985.0
20260507045110 59 267 2.0 2.0 0.00 0.00 0.00 99 985.0
20260507044710 59 264 2.0 2.0 0.00 0.00 0.00 99 985.0
20260507044300 59 228 2.0 2.0 0.00 0.00 0.00 99 985.1
20260507043900 59 195 1.0 2.0 0.00 0.00 0.00 99 985.1
20260507043456 59 184 2.0 3.0 0.00 0.00 0.00 99 985.1
20260507043055 59 177 3.0 4.0 0.00 0.00 0.00 99 985.0
20260507042655 59 170 2.0 4.0 0.00 0.00 0.00 99 984.8
20260507042254 59 180 2.0 2.0 0.00 0.00 0.00 99 984.8
20260507041854 59 204 2.0 3.0 0.00 0.00 0.00 99 984.9
20260507041454 59 217 3.0 4.0 0.00 0.00 0.00 99 984.9
20260507041053 59 230 3.0 4.0 0.00 0.00 0.00 99 984.8
20260507040653 59 248 2.0 3.0 0.00 0.00 0.00 99 984.8
20260507040252 59 248 2.0 3.0 0.00 0.00 0.00 99 984.8
20260507035848 59 248 2.0 2.0 0.00 0.00 0.00 99 984.7
20260507035449 59 225 2.0 3.0 0.00 0.00 0.00 99 984.7
20260507035049 59 225 2.0 3.0 0.00 0.00 0.00 99 984.7
20260507034649 59 240 2.0 3.0 0.00 0.00 0.00 99 984.6
20260507034247 59 232 2.0 3.0 0.00 0.00 0.00 99 984.6
20260507033846 59 218 2.0 3.0 0.00 0.00 0.00 99 984.7
20260507033446 59 227 4.0 5.0 0.00 0.00 0.00 99 984.7
20260507033046 59 234 4.0 6.0 0.00 0.00 0.00 99 984.7
20260507032646 59 242 4.0 5.0 0.00 0.00 0.00 99 984.6
20260507032244 59 77 0.0 2.0 0.00 0.00 0.00 99 984.5
20260507031843 59 74 1.0 1.0 0.00 0.00 0.00 99 984.4
20260507031444 59 74 1.0 1.0 0.00 0.00 0.00 99 984.4
20260507031044 59 77 1.0 2.0 0.00 0.00 0.00 99 984.3
20260507030644 59 77 1.0 2.0 0.00 0.00 0.00 99 984.3
20260507030242 59 14 1.0 2.0 0.00 0.00 0.00 99 984.2
20260507025841 59 325 1.0 1.0 0.00 0.00 0.00 99 984.2
20260507025441 59 325 1.0 1.0 0.00 0.00 0.00 29 984.2
20260507025039 58 324 1.0 1.0 0.00 0.00 0.00 29 984.2
20260507024639 58 325 1.0 1.0 0.00 0.00 0.00 29 984.2
20260507024237 58 300 1.0 3.0 0.00 0.00 0.00 29 984.1
20260507023837 58 277 1.0 1.0 0.00 0.00 0.00 29 984.2
20260507023437 58 279 1.0 1.0 0.00 0.00 0.00 29 984.2
20260507022637 58 306 1.0 1.0 0.00 0.00 0.00 29 984.2
20260507022235 58 306 1.0 1.0 0.00 0.00 0.00 29 984.0
20260507021835 58 303 2.0 2.0 0.00 0.00 0.00 29 984.1
20260507021435 58 282 1.0 2.0 0.00 0.00 0.00 29 984.0
20260507021028 57 297 2.0 3.0 0.00 0.00 0.00 29 984.0
20260507020627 58 278 3.0 4.0 0.00 0.00 0.00 29 984.1
20260507020224 58 286 3.0 4.0 0.00 0.00 0.00 29 984.1
20260507015823 58 306 3.0 4.0 0.00 0.00 0.00 29 984.1
20260507015423 58 309 4.0 5.0 0.00 0.00 0.00 29 984.0
20260507015023 58 305 3.0 3.0 0.00 0.00 0.00 29 984.0
20260507014623 58 296 4.0 5.0 0.00 0.00 0.00 29 984.0
20260507014221 58 287 6.0 7.0 0.00 0.00 0.00 29 984.1
20260507013819 58 298 6.0 7.0 0.00 0.00 0.00 29 984.1
20260507013419 58 299 6.0 9.0 0.00 0.00 0.00 29 984.2
20260507013018 58 304 7.0 10.0 0.00 0.00 0.00 29 984.1
20260507012618 58 300 9.0 11.0 0.00 0.00 0.00 29 984.1
20260507012216 58 293 7.0 9.0 0.00 0.00 0.00 29 984.1
20260507011816 58 281 7.0 8.0 0.00 0.00 0.00 29 984.2
20260507011416 58 270 6.0 8.0 0.00 0.00 0.00 29 984.2
20260507011016 58 269 6.0 9.0 0.00 0.00 0.00 29 984.2
20260507010616 58 272 8.0 10.0 0.00 0.00 0.00 29 984.3
20260507010214 59 275 8.0 12.0 0.00 0.00 0.00 99 984.2
20260507005814 59 282 8.0 10.0 0.00 0.00 0.00 99 984.2
20260507005414 59 269 8.0 10.0 0.00 0.00 0.00 99 984.2
20260507005013 59 269 6.0 9.0 0.00 0.00 0.00 98 984.2
20260507004613 60 284 8.0 11.0 0.00 0.00 0.00 97 984.2
20260507004211 60 276 7.0 8.0 0.00 0.00 0.00 96 984.2
20260507003811 60 260 6.0 11.0 0.00 0.00 0.00 96 984.2
20260507003411 60 267 6.0 7.0 0.00 0.00 0.00 95 984.1
20260507003009 60 259 5.0 7.0 0.00 0.00 0.00 95 984.1
20260507002609 60 245 6.0 9.0 0.00 0.00 0.00 95 984.2
20260507002207 60 256 5.0 7.0 0.00 0.00 0.00 95 984.2
20260507001807 60 256 4.0 6.0 0.00 0.00 0.00 95 984.1
20260507001407 60 252 4.0 6.0 0.00 0.00 0.00 95 984.1
20260507001007 60 253 5.0 7.0 0.00 0.00 0.00 94 984.1
20260507000607 60 261 6.0 8.0 0.00 0.00 0.00 94 984.0
20260507000205 60 269 5.0 7.0 0.00 0.00 0.00 94 983.9
20260506235805 60 264 6.0 7.0 0.00 0.00 0.00 94 983.9
20260506235405 60 258 7.0 8.0 0.00 0.00 0.00 94 983.9
20260506235005 60 250 8.0 9.0 0.00 0.00 0.00 93 983.9
20260506234605 60 263 6.0 7.0 0.00 0.00 0.00 92 983.8
20260506234156 60 320 3.0 4.0 0.00 0.00 0.00 91 983.7
20260506233755 60 13 1.0 2.0 0.00 0.00 0.00 91 983.6
20260506233354 60 9 0.0 1.0 0.00 0.00 0.00 91 983.6
20260506232553 60 10 1.0 3.0 0.00 0.00 0.00 91 983.6
20260506232151 60 190 0.0 1.0 0.00 0.00 0.00 91 983.6
20260506231749 60 173 0.0 1.0 0.00 0.00 0.00 91 983.6
20260506231349 60 71 1.0 3.0 0.00 0.00 0.00 92 983.5
20260506230949 60 47 4.0 5.0 0.00 0.00 0.00 92 983.4
20260506230549 60 85 2.0 4.0 0.00 0.00 0.00 91 983.5
20260506230147 60 161 2.0 3.0 0.00 0.00 0.00 91 983.6
20260506225747 60 175 2.0 3.0 0.00 0.00 0.00 91 983.6
20260506225347 60 83 2.0 4.0 0.00 0.00 0.00 92 983.5
20260506224947 60 48 3.0 6.0 0.00 0.00 0.00 92 983.5
20260506224547 60 50 3.0 4.0 0.00 0.00 0.00 92 983.6
20260506224145 60 108 1.0 1.0 0.00 0.00 0.00 92 983.7
20260506223745 60 99 1.0 2.0 0.00 0.00 0.00 92 983.8
20260506223346 60 73 1.0 2.0 0.00 0.00 0.00 93 983.7
20260506222946 60 46 2.0 3.0 0.00 0.00 0.00 93 983.7
20260506222546 60 37 3.0 5.0 0.00 0.00 0.00 94 983.7
20260506221743 60 21 3.0 6.0 0.00 0.00 0.00 94 983.7
20260506221343 60 24 3.0 5.0 0.00 0.00 0.00 94 983.8
20260506220941 59 55 3.0 5.0 0.00 0.00 0.00 94 983.7
20260506220541 59 46 4.0 6.0 0.00 0.00 0.00 95 983.7
20260506220139 59 15 3.0 5.0 0.00 0.00 0.00 95 983.7
20260506215339 59 29 3.0 5.0 0.00 0.00 0.00 95 983.8
20260506214939 59 5 1.0 4.0 0.00 0.00 0.00 95 983.8
20260506214539 59 333 2.0 5.0 0.00 0.00 0.00 96 983.9
20260506214137 59 344 3.0 6.0 0.00 0.00 0.00 96 983.9
20260506213737 59 3 6.0 8.0 0.00 0.00 0.00 96 983.9
20260506213337 59 328 6.0 8.0 0.00 0.00 0.00 96 984.0
20260506212937 59 302 6.0 8.0 0.00 0.00 0.00 96 984.1
20260506212537 59 295 7.0 9.0 0.00 0.00 0.00 96 984.2
20260506212135 60 297 7.0 9.0 0.00 0.00 0.00 95 984.1
20260506211735 59 294 7.0 9.0 0.00 0.00 0.00 95 984.0
20260506211335 59 293 7.0 10.0 0.00 0.00 0.00 94 983.9
20260506210928 59 276 5.0 7.0 0.00 0.00 0.00 95 983.9
20260506210527 60 284 10.0 12.0 0.00 0.00 0.00 94 983.9
20260506210124 60 287 8.0 10.0 0.00 0.00 0.00 94 983.9
20260506205721 60 277 10.0 14.0 0.00 0.00 0.00 93 984.0
20260506204920 61 272 8.0 11.0 0.00 0.00 0.00 91 983.9
20260506204520 61 271 9.0 12.0 0.00 0.00 0.00 90 983.8
20260506204118 61 265 7.0 10.0 0.00 0.00 0.00 90 983.8
20260506203718 61 273 8.0 10.0 0.00 0.00 0.00 89 983.7
20260506203319 60 253 8.0 12.0 0.00 0.00 0.00 89 983.8
20260506202919 60 271 8.0 11.0 0.00 0.00 0.00 88 983.5
20260506202519 60 286 5.0 7.0 0.00 0.00 0.00 87 983.2
20260506202117 60 316 5.0 8.0 0.00 0.00 0.00 87 983.1
20260506201717 60 332 5.0 7.0 0.00 0.00 0.00 87 983.2
20260506201317 60 319 3.0 4.0 0.00 0.00 0.00 87 983.2
20260506200917 60 314 7.0 9.0 0.00 0.00 0.00 88 983.2
20260506200517 60 319 9.0 11.0 0.00 0.00 0.00 88 983.2
20260506200115 61 9 11.0 14.0 0.00 0.00 0.00 88 983.1
20260506195715 61 335 10.0 13.0 0.00 0.00 0.00 86 983.3
20260506195315 61 291 4.0 7.0 0.00 0.00 0.00 86 983.5
20260506194913 61 242 5.0 7.0 0.00 0.00 0.00 86 983.4
20260506194513 61 290 7.0 9.0 0.00 0.00 0.00 86 983.2
20260506194111 62 312 11.0 15.0 0.00 0.00 0.00 86 983.1
20260506193711 62 308 13.0 16.0 0.00 0.00 0.00 84 983.1
20260506193311 63 303 12.0 15.0 0.00 0.00 0.00 82 983.2
20260506192911 63 298 12.0 14.0 0.00 0.00 0.00 80 983.3
20260506192511 63 286 10.0 15.0 0.00 0.00 0.00 77 983.3
20260506192109 64 296 9.0 13.0 0.00 0.00 0.00 76 983.3
20260506191709 64 301 9.0 12.0 0.00 0.00 0.00 76 983.2
20260506191307 64 284 12.0 17.0 0.00 0.00 0.00 74 983.2
20260506190907 65 273 11.0 14.0 0.00 0.00 0.00 73 983.2
20260506190507 65 292 9.0 11.0 0.00 0.00 0.00 71 982.9
20260506190105 66 309 7.0 8.0 0.00 0.00 0.00 70 982.7
20260506185705 66 279 5.0 7.0 0.00 0.00 0.00 69 982.6
20260506185307 66 250 3.0 4.0 0.00 0.00 0.00 68 982.6
20260506184906 66 294 4.0 5.0 0.00 0.00 0.00 67 982.6
20260506184505 66 264 6.0 8.0 0.00 0.00 0.00 68 982.5
20260506184056 66 275 9.0 14.0 0.00 0.00 0.00 67 982.5
20260506183652 67 285 10.0 12.0 0.00 0.00 0.00 65 982.4
20260506183251 67 302 8.0 9.0 0.00 0.00 0.00 64 982.3
20260506182851 68 288 5.0 7.0 0.00 0.00 0.00 63 982.2
20260506182450 69 288 10.0 12.0 0.00 0.00 0.00 62 982.2
20260506182048 70 280 12.0 14.0 0.00 0.00 0.00 60 982.2
20260506181648 70 244 7.0 12.0 0.00 0.00 0.00 57 982.0
20260506181248 70 210 2.0 2.0 0.00 0.00 0.00 56 981.9
20260506180848 70 164 1.0 2.0 0.00 0.00 0.00 56 981.8
20260506180448 70 156 1.0 2.0 0.00 0.00 0.00 55 981.7
20260506180045 70 154 1.0 2.0 0.00 0.00 0.00 55 981.7
20260506175645 70 146 1.0 1.0 0.00 0.00 0.00 55 981.6
20260506175246 71 148 1.0 2.0 0.00 0.00 0.00 55 981.6
20260506174845 71 131 0.0 0.0 0.00 0.00 0.00 54 981.6
20260506174446 71 116 0.0 1.0 0.00 0.00 0.00 54 981.5
20260506174043 71 122 1.0 4.0 0.00 0.00 0.00 54 981.5
20260506173643 71 131 2.0 6.0 0.00 0.00 0.00 54 981.5
20260506173243 71 115 1.0 3.0 0.00 0.00 0.00 53 981.6
20260506172841 71 129 1.0 2.0 0.00 0.00 0.00 53 981.7
20260506172441 72 124 1.0 2.0 0.00 0.00 0.00 53 981.6
20260506172039 72 112 2.0 4.0 0.00 0.00 0.00 52 981.6
20260506171639 72 112 2.0 4.0 0.00 0.00 0.00 52 981.6
20260506171239 72 111 2.0 4.0 0.00 0.00 0.00 52 981.6
20260506170838 72 122 2.0 4.0 0.00 0.00 0.00 51 981.6
20260506170438 72 110 3.0 6.0 0.00 0.00 0.00 51 981.6
20260506170036 72 121 4.0 6.0 0.00 0.00 0.00 51 981.7
20260506165636 72 125 3.0 6.0 0.00 0.00 0.00 51 981.7
20260506165234 73 109 3.0 4.0 0.00 0.00 0.00 51 981.7
20260506164834 73 117 3.0 5.0 0.00 0.00 0.00 50 981.7
20260506164434 73 106 3.0 5.0 0.00 0.00 0.00 50 981.8
20260506164032 73 123 2.0 3.0 0.00 0.00 0.00 50 981.9
20260506163632 73 111 3.0 6.0 0.00 0.00 0.00 50 981.9
20260506163232 73 121 2.0 4.0 0.00 0.00 0.00 50 981.9
20260506162832 73 128 2.0 4.0 0.00 0.00 0.00 50 982.0
20260506162432 73 172 2.0 6.0 0.00 0.00 0.00 50 982.0
20260506162030 73 100 1.0 2.0 0.00 0.00 0.00 50 982.1
20260506161628 73 97 0.0 1.0 0.00 0.00 0.00 50 982.1
20260506161228 73 98 1.0 2.0 0.00 0.00 0.00 50 982.1
20260506160820 73 177 0.0 2.0 0.00 0.00 0.00 50 982.2
20260506160419 73 190 1.0 2.0 0.00 0.00 0.00 50 982.1
20260506160017 73 165 1.0 2.0 0.00 0.00 0.00 51 982.2
20260506155616 73 190 1.0 2.0 0.00 0.00 0.00 51 982.3
20260506155216 73 202 2.0 4.0 0.00 0.00 0.00 51 982.3
20260506154816 73 199 2.0 3.0 0.00 0.00 0.00 51 982.4
20260506154415 73 217 3.0 5.0 0.00 0.00 0.00 51 982.4
20260506154013 73 224 4.0 6.0 0.00 0.00 0.00 50 982.4
20260506153613 73 214 3.0 4.0 0.00 0.00 0.00 50 982.5
20260506153213 73 175 1.0 5.0 0.00 0.00 0.00 50 982.5
20260506152813 73 190 3.0 5.0 0.00 0.00 0.00 50 982.6
20260506152413 73 203 3.0 5.0 0.00 0.00 0.00 50 982.6
20260506152011 73 204 6.0 7.0 0.00 0.00 0.00 50 982.6
20260506151612 73 199 7.0 12.0 0.00 0.00 0.00 49 982.6
20260506151211 73 187 5.0 12.0 0.00 0.00 0.00 48 982.6
20260506150809 73 167 4.0 12.0 0.00 0.00 0.00 48 982.6
20260506150409 73 189 4.0 9.0 0.00 0.00 0.00 47 982.7
20260506150006 73 168 5.0 8.0 0.00 0.00 0.00 47 982.7
20260506145606 73 141 4.0 10.0 0.00 0.00 0.00 46 982.7
20260506145206 74 161 3.0 6.0 0.00 0.00 0.00 46 982.7
20260506144806 74 173 2.0 4.0 0.00 0.00 0.00 45 982.7
20260506144406 74 305 2.0 3.0 0.00 0.00 0.00 45 982.7
20260506144004 74 236 2.0 3.0 0.00 0.00 0.00 45 982.8
20260506143604 74 235 2.0 3.0 0.00 0.00 0.00 45 982.8
20260506143202 75 281 1.0 2.0 0.00 0.00 0.00 44 982.7
20260506142802 75 268 3.0 5.0 0.00 0.00 0.00 44 982.7
20260506142402 75 273 5.0 7.0 0.00 0.00 0.00 44 982.7
20260506142000 75 265 2.0 4.0 0.00 0.00 0.00 44 982.7
20260506141559 75 234 2.0 5.0 0.00 0.00 0.00 44 982.8
20260506141159 75 242 3.0 6.0 0.00 0.00 0.00 44 982.8
20260506140759 75 228 2.0 4.0 0.00 0.00 0.00 45 982.8
20260506140359 74 238 3.0 6.0 0.00 0.00 0.00 44 982.9
20260506135957 74 272 5.0 7.0 0.00 0.00 0.00 44 982.9
20260506135555 74 267 1.0 3.0 0.00 0.00 0.00 44 982.9
20260506135155 74 170 2.0 4.0 0.00 0.00 0.00 45 983.0
20260506134755 74 200 4.0 6.0 0.00 0.00 0.00 44 983.1
20260506134355 74 235 6.0 10.0 0.00 0.00 0.00 44 983.1
20260506133945 74 217 5.0 9.0 0.00 0.00 0.00 44 983.1
20260506133545 74 187 6.0 9.0 0.00 0.00 0.00 44 983.1
20260506133143 74 199 3.0 5.0 0.00 0.00 0.00 44 983.1
20260506132742 74 224 5.0 8.0 0.00 0.00 0.00 44 983.1
20260506132342 74 215 6.0 9.0 0.00 0.00 0.00 44 983.1
20260506131940 74 204 7.0 10.0 0.00 0.00 0.00 44 983.1
20260506131540 74 188 10.0 14.0 0.00 0.00 0.00 44 983.1
20260506131140 74 214 6.0 10.0 0.00 0.00 0.00 44 983.1
20260506130740 74 229 6.0 9.0 0.00 0.00 0.00 44 983.1
20260506130340 74 200 8.0 13.0 0.00 0.00 0.00 44 983.0
20260506125938 74 225 10.0 12.0 0.00 0.00 0.00 43 983.1
20260506125538 74 200 9.0 12.0 0.00 0.00 0.00 44 983.1
20260506125138 74 206 10.0 14.0 0.00 0.00 0.00 43 983.2
20260506124736 74 208 11.0 18.0 0.00 0.00 0.00 43 983.2
20260506124336 74 218 6.0 10.0 0.00 0.00 0.00 43 983.1
20260506123934 74 256 10.0 14.0 0.00 0.00 0.00 44 983.2
20260506123534 74 222 7.0 12.0 0.00 0.00 0.00 44 983.3
20260506123133 74 188 4.0 9.0 0.00 0.00 0.00 44 983.2
20260506122734 74 188 6.0 12.0 0.00 0.00 0.00 44 983.3
20260506122334 73 171 7.0 14.0 0.00 0.00 0.00 45 983.4
20260506121932 73 176 7.0 11.0 0.00 0.00 0.00 45 983.4
20260506121532 73 209 10.0 12.0 0.00 0.00 0.00 45 983.4
20260506121132 73 199 8.0 14.0 0.00 0.00 0.00 45 983.4
20260506120731 73 201 8.0 13.0 0.00 0.00 0.00 46 983.3
20260506120331 73 174 8.0 12.0 0.00 0.00 0.00 47 983.2
20260506115929 73 190 8.0 18.0 0.00 0.00 0.00 48 983.2
20260506115529 73 197 4.0 7.0 0.00 0.00 0.00 49 983.2
20260506115129 73 224 3.0 5.0 0.00 0.00 0.00 49 983.2
20260506114729 72 228 5.0 8.0 0.00 0.00 0.00 49 983.2
20260506114329 72 202 5.0 10.0 0.00 0.00 0.00 49 983.2
20260506113927 72 215 5.0 10.0 0.00 0.00 0.00 49 983.2
20260506113524 72 212 10.0 16.0 0.00 0.00 0.00 49 983.2
20260506113124 72 188 5.0 9.0 0.00 0.00 0.00 49 983.3
20260506112725 72 202 8.0 12.0 0.00 0.00 0.00 50 983.3
20260506112324 72 217 5.0 11.0 0.00 0.00 0.00 50 983.3
20260506111922 71 216 8.0 17.0 0.00 0.00 0.00 51 983.3
20260506111522 71 143 4.0 10.0 0.00 0.00 0.00 51 983.4
20260506111122 71 179 7.0 15.0 0.00 0.00 0.00 52 983.4
20260506110715 71 223 8.0 10.0 0.00 0.00 0.00 52 983.3
20260506110314 71 246 8.0 15.0 0.00 0.00 0.00 53 983.2
20260506105911 70 235 6.0 10.0 0.00 0.00 0.00 53 983.4
20260506105510 70 242 8.0 14.0 0.00 0.00 0.00 54 983.4
20260506105110 70 234 9.0 14.0 0.00 0.00 0.00 53 983.4
20260506104710 70 174 3.0 6.0 0.00 0.00 0.00 54 983.5
20260506104310 70 174 10.0 15.0 0.00 0.00 0.00 54 983.5
20260506103909 69 213 5.0 8.0 0.00 0.00 0.00 55 983.4
20260506103509 69 209 10.0 15.0 0.00 0.00 0.00 55 983.4
20260506103109 69 237 10.0 14.0 0.00 0.00 0.00 56 983.4
20260506102706 69 208 6.0 11.0 0.00 0.00 0.00 56 983.5
20260506102306 69 221 11.0 16.0 0.00 0.00 0.00 56 983.5
20260506101904 69 240 11.0 17.0 0.00 0.00 0.00 57 983.5
20260506101504 69 219 8.0 10.0 0.00 0.00 0.00 58 983.5
20260506101104 69 238 6.0 11.0 0.00 0.00 0.00 58 983.5
20260506100704 69 217 11.0 16.0 0.00 0.00 0.00 58 983.4
20260506100304 69 242 11.0 17.0 0.00 0.00 0.00 57 983.4
20260506095901 69 219 10.0 17.0 0.00 0.00 0.00 58 983.4
20260506095501 69 216 8.0 12.0 0.00 0.00 0.00 58 983.5
20260506095101 69 234 12.0 17.0 0.00 0.00 0.00 58 983.5
20260506094701 69 215 6.0 10.0 0.00 0.00 0.00 58 983.5
20260506094301 69 215 8.0 12.0 0.00 0.00 0.00 58 983.5
20260506093859 69 226 12.0 16.0 0.00 0.00 0.00 58 983.4